Weather History for Sanford, FL

Change the Weather History Date:

Monday, January 7, 2013

  Actual Average Record
Temperature  
Mean Temperature 62 °F -  
Max Temperature 70 °F 72 °F 84 °F (1974)
Min Temperature 53 °F 49 °F 32 °F (2014)
Degree Days  
Heating Degree Days 4    
Growing Degree Days 12 (Base 50)    
Moisture  
Dew Point 55 °F    
Average Humidity 83    
Maximum Humidity 94    
Minimum Humidity 57    
Precipitation  
Precipitation 0.02 in - - ()
Sea Level Pressure  
Sea Level Pressure 30.19 in    
Wind  
Wind Speed 8 mph (North)    
Max Wind Speed 14 mph    
Max Gust Speed -    
Visibility 10 miles    
Events Rain    
Averages and records for this station are not official NWS values.
T = Trace of Precipitation, MM = Missing Value Source: NWS Daily Summary

Daily Weather History Graph

Daily Weather History Graph

Search for Another Location

Airport:

Trip Planner

Search our weather history database for the weather conditions in past years. The results will help you decide how hot, cold, wet, or windy it might be!

Date:

Astronomy

Jan. 07, 2013 Rise Set
Actual Time 7:19 AM EST 5:43 PM EST
Civil Twilight 6:53 AM EST 6:09 PM EST
Nautical Twilight 6:24 AM EST 6:38 PM EST
Astronomical Twilight 5:55 AM EST 7:07 PM EST
Moon 2:46 AM EST (1/7) 1:49 PM EST (1/7)
Length of Visible Light 11h 16m
Length of Day
10h 24m
Waning Crescent, 23% of the Moon is Illuminated
Jan 7
Waning Crescent
Jan 11
New
Jan 18
First Quarter
Jan 26
Full
Feb 3
Last Quarter

Hourly Weather History & Observations

Time (EST) Temp. Dew Point Humidity Pressure Visibility Wind Dir Wind Speed Gust Speed Precip Events Conditions
12:53 AM 59.0 °F 57.0 °F 93% 30.15 in 10.0 mi NNE 5.8 mph - 0.00 in Rain Light Rain
1:05 AM 59.0 °F 57.2 °F 94% 30.16 in 10.0 mi North 4.6 mph - 0.00 in Rain Light Rain
1:53 AM 59.0 °F 57.0 °F 93% 30.16 in 10.0 mi North 5.8 mph - 0.00 in   Overcast
2:32 AM 59.0 °F 57.2 °F 94% 30.16 in 10.0 mi North 8.1 mph - 0.01 in   Overcast
2:53 AM 59.0 °F 57.0 °F 93% 30.16 in 10.0 mi North 9.2 mph - 0.01 in   Overcast
3:17 AM 59.0 °F 55.4 °F 88% 30.16 in 10.0 mi North 11.5 mph - N/A   Overcast
3:42 AM 57.2 °F 55.4 °F 94% 30.15 in 10.0 mi NNE 9.2 mph - N/A   Mostly Cloudy
3:53 AM 57.9 °F 55.9 °F 93% 30.15 in 10.0 mi North 8.1 mph - 0.00 in Rain Light Rain
4:15 AM 57.2 °F 55.4 °F 94% 30.16 in 10.0 mi North 12.7 mph - 0.00 in   Mostly Cloudy
4:28 AM 57.2 °F 55.4 °F 94% 30.16 in 10.0 mi North 11.5 mph - 0.00 in   Scattered Clouds
4:53 AM 57.0 °F 53.1 °F 87% 30.16 in 10.0 mi North 10.4 mph - 0.00 in Rain Light Rain
5:11 AM 57.2 °F 53.6 °F 88% 30.17 in 10.0 mi North 10.4 mph - 0.00 in   Mostly Cloudy
5:32 AM 55.4 °F 51.8 °F 88% 30.18 in 10.0 mi North 9.2 mph - 0.00 in   Mostly Cloudy
5:53 AM 55.9 °F 50.0 °F 80% 30.18 in 10.0 mi North 10.4 mph - 0.00 in   Scattered Clouds
6:02 AM 55.4 °F 50.0 °F 82% 30.18 in 10.0 mi North 12.7 mph - N/A   Mostly Cloudy
6:53 AM 54.0 °F 48.9 °F 83% 30.21 in 10.0 mi North 11.5 mph - N/A   Mostly Cloudy
7:10 AM 53.6 °F 48.2 °F 82% 30.22 in 10.0 mi North 10.4 mph - 0.01 in   Scattered Clouds
7:53 AM 54.0 °F 48.9 °F 83% 30.23 in 10.0 mi North 10.4 mph - 0.01 in   Mostly Cloudy
8:22 AM 55.4 °F 50.0 °F 82% 30.24 in 10.0 mi North 6.9 mph - N/A   Scattered Clouds
8:53 AM 55.9 °F 50.0 °F 80% 30.24 in 10.0 mi North 10.4 mph - N/A   Partly Cloudy
9:53 AM 60.1 °F 51.1 °F 72% 30.24 in 10.0 mi NNE 9.2 mph - N/A   Overcast
10:53 AM 63.0 °F 52.0 °F 67% 30.24 in 10.0 mi NE 8.1 mph - N/A   Scattered Clouds
11:53 AM 66.9 °F 53.1 °F 61% 30.22 in 10.0 mi NE 12.7 mph - N/A   Mostly Cloudy
12:53 PM 69.1 °F 53.1 °F 57% 30.19 in 10.0 mi NNE 13.8 mph - N/A   Partly Cloudy
1:53 PM 70.0 °F 55.0 °F 59% 30.18 in 10.0 mi NE 11.5 mph - N/A   Clear
2:53 PM 69.1 °F 55.9 °F 63% 30.17 in 10.0 mi NE 11.5 mph - N/A   Scattered Clouds
3:53 PM 66.9 °F 55.9 °F 68% 30.18 in 10.0 mi NNE 9.2 mph - N/A   Overcast
4:44 PM 66.2 °F 55.4 °F 68% 30.19 in 9.0 mi NNE 6.9 mph - 0.00 in Rain Light Rain
4:53 PM 64.9 °F 57.0 °F 75% 30.19 in 5.0 mi NNE 8.1 mph - 0.00 in Rain Rain
5:22 PM 62.6 °F 59.0 °F 88% 30.20 in 10.0 mi North 4.6 mph - N/A Rain Light Rain
5:51 PM 62.6 °F 59.0 °F 88% 30.20 in 10.0 mi North 5.8 mph - N/A Rain Light Rain
6:53 PM 63.0 °F 60.1 °F 90% 30.21 in 10.0 mi NNE 6.9 mph - 0.00 in Rain Light Rain
7:53 PM 63.0 °F 60.1 °F 90% 30.22 in 7.0 mi North 6.9 mph - 0.00 in Rain Rain
8:53 PM 63.0 °F 60.1 °F 90% 30.22 in 10.0 mi North 5.8 mph - N/A   Overcast
9:53 PM 63.0 °F 60.1 °F 90% 30.21 in 10.0 mi NNE 9.2 mph - N/A   Overcast
10:53 PM 62.1 °F 60.1 °F 93% 30.21 in 10.0 mi North 5.8 mph - N/A   Overcast
11:53 PM 63.0 °F 61.0 °F 93% 30.19 in 9.0 mi North 6.9 mph - N/A   Overcast